Flag for Germany Weather past 2 weeks in Weimar, Thuringia, Germany

Now
34 °F

Passing clouds.


Feels Like: 25 °F
Forecast: 28 / 35 °F
Wind: 12 mph from South

Location: Erfurt-Bindersleben

Current Time: Jan 29, 2015 at 5:42:14 PM

Latest Report: Jan 29, 2015 at 5:20 PM


Visibility: N/A

Pressure: 29.03 "Hg

Humidity: 87%

Dew point: 30 °F

Location of WeimarLocation

Historic Weather in Weimar — Graph

°F

Weimar temperature yesterday

Maximum temperature yesterday: 37 °F (at 9:50 AM)
Minimum temperature yesterday: 34 °F (at 12:20 AM)
Average temperature yesterday: 36 °F

Past Weeks' High & Low Weather Summary

 TemperatureHumidityPressure
High48 °F (Jan 15, 7:50 PM)100% (Jan 16, 4:50 PM)30.30 "Hg (Jan 16, 4:50 PM)
Low21 °F (Jan 24, 8:20 AM)62% (Jan 15, 7:50 PM)29.06 "Hg (Jan 29, 4:20 PM)
Average33 °F92%29.92 "Hg
* Reported Jan 14 4:20 PM — Jan 29 4:50 PM, Weimar, Weather by CustomWeather, © 2014

Note: Actual official high and low records may vary slightly from our data, if they occured in-between our weather recording intervals... More about our weather records

Advertising

Weimar weather history for previous 24 hours

 ConditionsComfort  
Time TempWeatherWind HumidityBarometerVisibility
4:50 PM
Jan 29
34 °FScattered clouds.9 mph87%29.06 "HgN/A
4:20 PM34 °FScattered clouds.12 mph87%29.06 "HgN/A
3:50 PM36 °FScattered clouds.10 mph81%29.09 "HgN/A
3:20 PM36 °FSnow flurries. Scattered clouds.10 mph87%29.12 "Hg5 mi
2:50 PM34 °FScattered clouds.13 mph87%29.12 "HgN/A
2:20 PM36 °FScattered clouds.14 mph87%29.15 "HgN/A
1:50 PM34 °FScattered clouds.9 mph93%29.15 "HgN/A
1:20 PM32 °FSnow flurries. Scattered clouds.10 mph100%29.18 "Hg5 mi
12:50 PM32 °FSnow. Partly sunny.15 mph100%29.21 "HgN/A
12:20 PM34 °FSnow flurries. Broken clouds.17 mph87%29.21 "HgN/A
11:50 AM34 °FScattered clouds.17 mph87%29.24 "HgN/A
11:20 AM34 °FPartly sunny.20 mph81%29.24 "HgN/A
10:50 AM34 °FScattered clouds.22 mph81%29.27 "HgN/A
10:20 AM34 °FScattered clouds.22 mph75%29.27 "HgN/A
9:50 AM34 °FScattered clouds.21 mph75%29.30 "HgN/A
9:20 AM32 °FPartly sunny.21 mph80%29.30 "HgN/A
8:50 AM32 °FScattered clouds.17 mph80%29.33 "HgN/A
8:20 AM30 °FPassing clouds.20 mph80%29.33 "HgN/A
7:50 AM30 °FPassing clouds.13 mph80%29.33 "HgN/A
7:20 AM30 °FPassing clouds.9 mph80%29.33 "HgN/A
6:50 AM32 °FPassing clouds.9 mph75%29.36 "HgN/A
6:20 AM32 °FPassing clouds.14 mph80%29.36 "HgN/A
5:50 AM32 °FPassing clouds.14 mph87%29.36 "HgN/A
5:20 AM30 °FPassing clouds.22 mph100%29.36 "HgN/A
4:50 AM32 °FPartly cloudy.16 mph87%29.39 "HgN/A
4:20 AM32 °FPassing clouds.16 mph87%29.36 "HgN/A
3:50 AM32 °FSnow flurries. Partly cloudy.16 mph93%29.39 "Hg3 mi
3:20 AM34 °FClear.20 mph81%29.39 "Hg10 mi
2:50 AM32 °FClear.16 mph87%29.39 "Hg10 mi
2:20 AM32 °FClear.14 mph87%29.39 "Hg10 mi
1:50 AM34 °FPassing clouds.13 mph81%29.39 "HgN/A
1:20 AM34 °FPassing clouds.14 mph87%29.39 "HgN/A
12:50 AM32 °FPassing clouds.20 mph100%29.39 "HgN/A
12:20 AM36 °FPassing clouds.15 mph87%29.39 "HgN/A
11:50 PM
Jan 28
36 °FLight rain. Partly cloudy.15 mph93%29.39 "HgN/A
11:20 PM36 °FLight rain. Partly cloudy.17 mph100%29.39 "HgN/A
10:50 PM37 °FLight rain. Passing clouds.21 mph87%29.36 "HgN/A
10:20 PM37 °FPassing clouds.22 mph87%29.36 "HgN/A
9:50 PM37 °FLight rain. Passing clouds.21 mph87%29.36 "HgN/A
9:20 PM37 °FLight rain. Passing clouds.20 mph87%29.36 "HgN/A
8:50 PM37 °FLight rain. Passing clouds.22 mph87%29.36 "HgN/A
8:20 PM37 °FSprinkles. Passing clouds.16 mph87%29.39 "HgN/A
7:50 PM37 °FSprinkles. Partly cloudy.16 mph87%29.42 "HgN/A
7:20 PM37 °FSprinkles. Partly cloudy.30 mph87%29.42 "HgN/A
6:50 PM37 °FPassing clouds.26 mph81%29.45 "HgN/A
6:20 PM37 °FPassing clouds.30 mph81%29.47 "HgN/A
5:50 PM37 °FPassing clouds.25 mph81%29.50 "HgN/A
5:20 PM37 °FPartly cloudy.21 mph81%29.53 "HgN/A
Weather by CustomWeather, © 2014

See weather overviewHow to use our weather pages